Location: Avanton
(46.6637°N, 0.3086°E)
Time: 00:07:07
(UTC+00:00)

Daily predictions for brighter satellites

Satellite Brightness Start Highest point End
(mag) Time Altitude Azimuth Time Altitude Azimuth Time Altitude Azimuth
ATLAS 2AS CENTAUR R/B 4.1 01:22:05 35° NE 01:22:05 35° NE 01:25:56 10° NE
Resurs 1-4 Rocket 4.4 01:42:12 10° NNE 01:43:37 19° NNE 01:43:37 19° NNE
SL-16 R/B 4.1 02:10:01 26° N 02:10:01 26° N 02:12:33 10° NNW
USA 281 4.0 02:02:12 10° NNE 02:07:16 47° ENE 02:07:16 47° ENE
ADEOS II 4.0 02:04:27 10° NNE 02:06:35 25° NNE 02:06:35 25° NNE
CZ-2D R/B 4.1 02:09:30 10° NNE 02:11:32 24° N 02:11:32 24° N
Lacrosse 5 rocket 4.3 02:31:30 14° NE 02:31:30 14° NE 02:32:04 10° NE
Cosmos 2082 Rocket 4.4 02:32:50 16° NNW 02:32:50 16° NNW 02:34:52 10° N
ATLAS CENTAUR R/B 3.7 02:34:10 60° NNW 02:34:11 60° NNW 02:45:39 10° NE
COSMOS 2428 3.5 02:42:56 10° NNW 02:48:28 49° ENE 02:53:59 10° SE
CZ-2C R/B 3.8 02:52:12 10° NNE 02:56:26 31° E 02:56:50 31° ESE
ALOS 3.6 02:53:33 10° NNE 02:56:20 36° NNE 02:56:20 36° NNE
USA 215 3.6 02:54:10 10° ESE 03:00:35 62° NNE 03:03:31 34° NW
ATLAS 2AS CENTAUR R/B 3.5 03:09:31 38° NW 03:10:09 39° NW 03:16:48 10° NNE
Cosmos 1655 Rocket 4.0 03:13:15 71° WNW 03:13:15 71° WNW 03:19:23 10° N
SL-08 ROCKET BODY 4.3 03:16:47 72° WNW 03:16:47 72° WNW 03:22:37 10° N
CZ-2C R/B 3.1 03:13:57 10° NNE 03:19:43 90° WSW 03:19:53 85° SSW
Meteor 2-12 Rocket 4.4 03:20:51 63° WNW 03:20:51 63° WNW 03:26:36 10° N
Thor Agena Rocket 3.8 03:16:59 10° N 03:21:26 59° NNW 03:21:26 59° NNW
Resurs 1-4 Rocket 4.1 03:23:01 10° NNW 03:24:40 16° NNW 03:24:40 16° NNW
Cosmos 1743 Rocket 3.9 03:23:18 10° N 03:27:37 62° E 03:27:40 62° E
Meteor 1-11 Rocket 4.4 03:22:52 10° N 03:28:42 59° ENE 03:34:34 10° SSE
Meteor 1-14 Rocket 4.2 03:23:26 10° NNW 03:29:25 72° W 03:30:00 67° SW
Cosmos 1805 Rocket 3.9 03:25:42 10° N 03:30:00 62° ENE 03:30:45 52° SE
USA 229 DEB 4.0 03:24:16 10° NW 03:31:43 83° NE 03:39:46 10° SE
USA 229 4.0 03:24:22 10° NW 03:31:48 83° NE 03:39:50 10° SE
Cosmos 1867 3.6 03:33:23 63° S 03:33:23 63° S 03:38:03 10° SSE
ATLAS CENTAUR R/B 4.0 03:36:07 10° N 03:37:36 12° NNE 03:39:03 10° NE
Meteor 2-6 Rocket 3.9 03:38:04 69° WSW 03:38:22 71° WNW 03:43:46 10° N
Sich 1 3.2 03:34:30 10° N 03:38:51 70° E 03:41:11 27° SSE
GP-B 3.3 03:38:17 38° SSE 03:39:53 67° E 03:44:18 10° N
Cosmos 1244 Rocket 4.4 03:39:43 25° S 03:43:33 87° E 03:49:55 10° N
YAOGAN 6 3.2 03:42:55 10° NNE 03:45:35 49° NE 03:45:35 49° NE
BlueWalker 3 3.3 03:48:24 30° SSE 03:48:24 30° SSE 03:50:30 10° SE
Meteor 1-10 Rocket 4.1 03:44:45 31° S 03:47:31 85° E 03:53:06 10° NNE
NOSS 3-1 (A) 4.2 03:43:24 25° WNW 03:47:53 49° WSW 03:56:22 10° S
ADEOS II 3.8 03:45:03 10° NNW 03:47:29 19° NW 03:47:29 19° NW
USA 281 3.8 03:47:02 10° NNE 03:52:55 36° NW 03:54:08 34° WNW
IRS-1D 3.5 03:47:40 10° N 03:52:56 66° WNW 03:54:06 50° SW
CZ-2D R/B 4.2 03:51:29 10° NNW 03:52:49 13° NW 03:52:49 13° NW
Envisat 2.9 03:50:05 10° NNE 03:55:12 89° W 03:57:47 30° SSW
TIMED 4.4 03:58:24 55° SSW 03:59:19 88° WNW 04:03:41 10° NNE
Cosmos 2297 Rocket 2.8 03:55:04 13° S 04:00:02 54° ESE 04:05:32 10° NE
Cosmos 1536 2.6 04:02:59 10° NNW 04:06:51 66° W 04:07:16 60° SW
Cosmos 1125 Rocket 3.9 04:06:13 40° W 04:06:57 43° WNW 04:11:55 10° N
Lacrosse 5 rocket 2.4 04:06:40 28° NNW 04:07:01 29° NNW 04:10:27 10° NE
Cosmos 2237 Rocket 2.3 04:04:04 10° NNW 04:09:48 79° ENE 04:15:27 10° SSE
METEOR-M 4.3 04:06:39 10° N 04:11:50 52° WNW 04:13:57 33° SW
Okean 1 3.1 04:16:06 17° S 04:19:00 88° E 04:22:53 10° N
SL-16 R/B 3.8 04:14:01 10° NNW 04:19:12 35° NE 04:24:22 10° ESE
YAOGAN 11 4.4 04:16:32 10° S 04:20:49 43° W 04:25:04 10° NNW
Cosmos 1726 3.1 04:19:35 10° N 04:22:54 43° ENE 04:26:11 10° SSE
H-2A R/B 3.5 04:20:26 10° NNE 04:23:49 47° E 04:27:11 10° S
ERS-2 4.2 04:22:35 10° NE 04:25:12 24° E 04:27:48 10° SSE
Cosmos 1975 4.4 04:21:39 10° N 04:25:22 37° ENE 04:29:04 10° SE
COBE Rocket 3.9 04:22:52 10° N 04:27:38 60° WNW 04:32:18 11° SSW
Cosmos 2344 4.3 04:22:15 10° SSW 04:29:37 51° ESE 04:36:41 10° NE
PAYLOAD A 4.4 04:25:08 10° N 04:29:44 41° WNW 04:32:20 23° WSW
Nadezhda 1 Rocket 3.9 04:25:43 10° NNW 04:31:59 71° W 04:38:06 10° S
COSMOS 2428 3.4 04:27:38 10° NW 04:32:28 29° WSW 04:37:19 10° SSW
ATLAS 5 CENTAUR R/B 4.3 04:30:52 10° N 04:33:01 13° NNE 04:35:20 10° NE
CBERS-1 4.0 04:28:21 10° N 04:33:23 60° WNW 04:38:25 10° SSW
NOSS 0 Rocket 4.1 04:27:32 10° NW 04:33:29 47° WSW 04:39:24 10° S
CZ-2C R/B 3.1 04:30:23 10° N 04:34:35 32° WNW 04:36:09 25° W
Cosmos 1151 Rocket 3.2 04:31:38 17° SSW 04:34:51 51° WNW 04:39:09 10° N
ALOS 4.0 04:32:12 10° NNW 04:34:43 16° NW 04:34:43 16° NW
Cosmos 1733 3.5 04:38:55 10° N 04:42:36 64° E 04:46:15 10° SSE
USA 215 3.4 04:37:21 10° SSE 04:43:42 52° SW 04:50:05 10° WNW
BREEZE-M DEB (TANK) 3.7 04:42:21 22° WSW 04:45:05 85° NNW 05:01:56 10° ENE
Cosmos 1666 Rocket 3.5 04:41:00 10° NNW 04:45:20 58° W 04:49:34 10° S
Cosmos 1328 Rocket 3.5 04:41:34 10° S 04:45:58 81° W 04:50:23 10° N
Meteor 2-20 Rocket 4.4 04:40:06 10° NNW 04:46:20 73° W 04:52:19 10° S
ARIANE 5 R/B 2.6 04:41:37 10° NNE 04:46:40 78° ESE 04:51:39 10° S
Cosmos 2227 Rocket 2.5 04:41:10 10° SSW 04:46:48 72° ESE 04:52:29 10° NNE
Cosmos 44 Rocket 3.4 04:43:55 16° SW 04:47:53 65° NW 04:53:03 10° NNE
COSMO-SKYMED 1 3.5 04:43:44 10° SSE 04:47:56 52° ENE 04:52:11 10° N
Meteor 1-27 Rocket 4.0 04:48:47 10° SW 04:54:09 45° WNW 04:59:40 10° N
DMSP B5D2-2 4.4 04:50:09 10° S 04:55:09 45° W 05:00:14 10° NNW
CZ-2D R/B 3.9 04:52:39 10° NNE 04:57:00 71° ESE 05:01:21 10° S
Helios 1A 3.2 04:55:45 10° S 04:59:39 44° W 05:03:35 10° NNW
ATLAS 2AS CENTAUR R/B 4.4 04:57:56 10° NW 05:03:11 21° N 05:08:16 10° NE
Meteor 1-19 Rocket 4.4 04:58:20 10° SSW 05:03:41 47° WNW 05:08:57 10° N
Cosmos 1269 Rocket 4.3 04:59:38 10° NNW 05:04:40 46° WSW 05:09:41 10° S
IRS-P3 4.1 05:00:05 10° NNE 05:05:27 82° WNW 05:10:47 10° SSW
Cosmos 1709 Rocket 4.0 05:00:30 10° SSW 05:06:50 69° W 05:13:12 10° N
Cosmos 1238 4.0 05:04:55 10° NNW 05:07:57 73° W 05:11:00 10° S
Cosmos 1805 3.1 05:05:37 10° N 05:09:25 89° WSW 05:13:11 10° S
Cosmos 1140 Rocket 3.9 05:08:04 10° NNW 05:13:19 70° ENE 05:18:32 10° SSE
Cosmos 1633 Rocket 3.6 05:09:48 10° NNW 05:13:50 36° W 05:17:52 10° SSW
Meteor 2-4 Rocket 3.8 05:07:55 10° SSW 05:13:50 79° WNW 05:19:40 10° N
Cosmos 1980 4.4 05:10:31 10° NW 05:15:27 32° WSW 05:20:23 10° SSW
Cosmos 1484 Rocket 3.8 05:12:31 10° NNW 05:15:28 24° WNW 05:18:24 10° WSW
ATLAS CENTAUR R/B 1.3 05:12:47 10° NNW 05:16:22 70° NE 05:19:56 10° SE
H-2A R/B 2.1 05:17:19 10° N 05:22:46 76° WNW 05:28:08 10° SSW
Meteor 1-18 Rocket 4.3 05:19:15 10° SSW 05:25:05 69° WNW 05:30:52 10° N
SAR-Lupe-2 4.2 05:26:55 10° NNE 05:30:28 62° ESE 05:33:59 10° S
PSLV R/B 3.8 05:26:30 10° NNE 05:30:39 73° ESE 05:34:46 10° S
Aureole 3 3.7 05:28:36 10° S 05:31:30 50° E 05:34:26 10° NNE
CZ-2C R/B 4.5 05:28:09 10° NNE 05:31:41 38° E 05:35:07 10° SSE
Cosmos 1869 Rocket 4.0 05:28:08 10° N 05:32:28 66° E 05:36:45 10° SSE
SKYMED 2 3.8 05:31:48 10° S 05:36:00 50° W 05:40:16 10° NNW
Cosmos 2251 Rocket 3.6 05:31:14 10° NNW 05:36:30 89° WSW 05:41:44 10° SSE
